period_start,C,m1,H,J0,J1,J2,J3,J4,J5,JA,JB,JC,JD,JJ,JK,JN,#
2013-10-17 00:00:57,0.14,1.57,0.00,26.57,28.55,31.08,5.87,29.42,1007.83,2042.00,2883.09,2884.45,3129.03,350.35,317.76,15.02,0000 0000 0000 0000 000000
2013-10-17 00:01:57,0.14,1.57,0.00,26.51,28.55,31.08,5.92,29.33,1007.83,2042.00,2882.71,2884.17,3128.70,350.47,317.23,15.03,0000 0000 0000 0000 000000
2013-10-17 00:02:57,0.20,1.57,0.00,26.50,28.55,31.08,5.88,29.50,1007.83,2042.00,2882.27,2884.06,3128.31,350.49,317.96,15.03,0000 0000 0000 0000 000000
2013-10-17 00:03:57,0.14,1.57,0.00,26.55,28.55,31.12,5.88,29.54,1007.83,2042.00,2882.09,2883.90,3128.11,349.50,316.98,15.04,0000 0000 0000 0000 000000
2013-10-17 00:04:57,0.09,1.57,0.00,26.57,28.55,31.10,5.79,29.75,1007.83,2042.00,2881.82,2883.44,3128.01,349.80,317.41,15.05,0000 0000 0000 0000 000000
2013-10-17 00:05:57,0.20,1.58,0.00,26.51,28.55,31.12,5.85,29.58,1007.83,2042.00,2881.38,2883.17,3127.90,350.38,317.75,15.05,0000 0000 0000 0000 000000
2013-10-17 00:06:58,0.14,1.58,0.00,26.51,28.55,31.12,5.87,29.54,1007.83,2042.00,2881.13,2883.06,3127.51,350.56,317.91,15.06,0000 0000 0000 0000 000000
2013-10-17 00:07:58,0.12,1.58,0.00,26.51,28.55,31.13,5.74,29.46,1007.83,2042.01,2881.03,2883.02,3127.20,350.22,317.60,15.06,0000 0000 0000 0000 000000
2013-10-17 00:08:58,0.07,1.58,0.00,26.51,28.55,31.12,5.79,29.58,1007.83,2042.00,2880.67,2882.96,3127.06,350.55,317.90,15.07,0000 0000 0000 0000 000000
2013-10-17 00:09:59,0.08,1.58,0.00,26.54,28.55,31.12,5.90,29.50,1007.85,2042.00,2880.26,2882.57,3126.98,350.06,317.73,15.08,0000 0000 0000 0000 000000
2013-10-17 00:10:59,0.20,1.58,0.00,26.50,28.55,31.10,5.99,29.50,1007.84,2042.00,2880.09,2882.21,3126.67,350.06,317.47,15.08,0000 0000 0000 0000 000000
2013-10-17 00:11:59,0.16,1.58,0.00,26.53,28.55,31.09,5.85,29.42,1007.85,2042.00,2879.85,2882.07,3126.28,350.24,317.61,15.09,0000 0000 0000 0000 000000
2013-10-17 00:12:59,0.13,1.58,0.00,26.54,28.55,31.08,5.77,29.42,1007.86,2042.00,2879.35,2882.01,3126.10,350.09,317.44,15.09,0000 0000 0000 0000 000000
2013-10-17 00:13:59,0.12,1.58,0.00,26.58,28.55,31.08,5.88,29.46,1007.84,2042.00,2879.13,2881.90,3126.03,350.39,317.44,15.10,0000 0000 0000 0000 000000
2013-10-17 00:15:00,0.06,1.58,0.00,26.57,28.55,31.10,5.81,29.63,1007.87,2042.00,2879.04,2881.48,3125.77,349.55,317.19,15.10,0000 0000 0000 0000 000000
2013-10-17 00:16:00,0.18,1.58,0.00,26.53,28.55,31.10,5.83,29.42,1007.87,2042.00,2878.85,2881.18,3125.32,350.03,317.42,15.11,0000 0000 0000 0000 000000
2013-10-17 00:17:00,0.17,1.58,0.00,26.53,28.54,31.08,5.96,29.54,1007.86,2042.00,2878.40,2881.06,3125.11,350.67,317.61,15.12,0000 0000 0000 0000 000000
2013-10-17 00:18:00,0.13,1.59,0.00,26.52,28.54,31.07,5.82,29.50,1007.84,2042.00,2878.15,2881.01,3125.02,351.07,318.20,15.12,0000 0000 0000 0000 000000
2013-10-17 00:19:01,0.06,1.59,0.00,26.52,28.54,31.07,5.73,29.46,1007.83,2042.00,2878.02,2880.77,3124.87,349.13,316.60,15.13,0000 0000 0000 0000 000000
2013-10-17 00:20:01,0.10,1.59,0.00,26.50,28.54,31.09,5.72,29.63,1007.83,2042.00,2877.72,2880.35,3124.46,349.40,317.15,15.13,0000 0000 0000 0000 000000
2013-10-17 00:21:01,0.24,1.59,0.00,26.58,28.54,31.09,5.89,29.38,1007.85,2042.00,2877.29,2880.14,3124.18,351.40,318.61,15.14,0000 0000 0000 0000 000000
2013-10-17 00:22:01,0.15,1.59,0.00,26.59,28.54,31.07,5.76,29.42,1007.84,2042.00,2877.10,2880.05,3124.05,350.23,317.53,15.15,0000 0000 0000 0000 000000
2013-10-17 00:23:02,0.06,1.59,0.00,26.58,28.53,31.07,5.82,29.63,1008.02,2042.00,2876.92,2880.00,3123.93,350.00,317.33,15.15,0000 0000 0000 0000 000000
2013-10-17 00:24:02,0.04,1.59,0.00,26.59,28.53,31.06,5.99,29.54,1008.05,2042.00,2876.45,2879.79,3123.57,350.70,318.10,15.16,0000 0000 0000 0000 000000
2013-10-17 00:25:02,0.22,1.59,0.00,26.54,28.53,31.05,5.69,29.21,1008.11,2042.00,2876.17,2879.37,3123.23,349.19,316.72,15.16,0000 0000 0000 0000 000000
2013-10-17 00:26:02,0.20,1.59,0.00,26.49,28.53,31.08,5.79,29.33,1008.05,2042.00,2876.03,2879.13,3123.08,349.99,317.44,15.17,0000 0000 0000 0000 000000
2013-10-17 00:27:02,0.09,1.59,0.00,26.52,28.52,31.07,5.73,29.46,1008.04,2042.00,2875.65,2879.05,3122.99,348.47,316.07,15.17,0000 0000 0000 0000 000000
2013-10-17 00:28:03,0.10,1.59,0.00,26.49,28.52,31.07,5.79,29.38,1007.97,2042.00,2875.25,2879.01,3122.75,349.64,317.15,15.18,0000 0000 0000 0000 000000
2013-10-17 00:29:03,0.10,1.59,0.00,26.46,28.53,31.07,5.93,29.42,1008.09,2042.00,2875.09,2878.99,3122.33,350.42,317.92,15.19,0000 0000 0000 0000 000000
2013-10-17 00:30:03,0.10,1.59,0.00,26.48,28.52,31.08,5.69,29.50,1008.00,2042.00,2874.87,2878.59,3122.12,348.98,316.79,15.19,0000 0000 0000 0000 000000
2013-10-17 00:31:04,0.17,1.59,0.00,26.53,28.52,31.08,5.88,29.29,1008.22,2042.00,2874.43,2878.25,3122.03,350.53,317.99,15.20,0000 0000 0000 0000 000000
2013-10-17 00:32:04,0.17,1.60,0.00,26.53,28.52,31.08,5.87,29.33,1008.23,2042.00,2874.16,2878.09,3121.86,350.22,317.71,15.20,0000 0000 0000 0000 000000
2013-10-17 00:33:04,0.10,1.60,0.00,26.56,28.52,31.08,5.98,29.38,1008.28,2042.00,2874.03,2878.03,3121.43,350.40,318.05,15.21,0000 0000 0000 0000 000000
2013-10-17 00:34:04,0.10,1.60,0.00,26.58,28.52,31.06,5.69,29.38,1008.19,2042.00,2873.76,2877.96,3121.17,349.20,317.10,15.22,0000 0000 0000 0000 000000
2013-10-17 00:35:04,0.11,1.60,0.00,26.59,28.52,31.07,5.88,29.50,1008.12,2042.00,2873.33,2877.56,3121.06,349.73,317.17,15.22,0000 0000 0000 0000 000000
2013-10-17 00:36:05,0.20,1.60,0.00,26.59,28.52,31.07,5.88,29.29,1008.15,2042.00,2873.11,2877.21,3120.97,350.75,318.11,15.23,0000 0000 0000 0000 000000
2013-10-17 00:37:05,0.13,1.60,0.00,26.58,28.52,31.08,5.77,29.25,1008.16,2042.00,2872.87,2877.07,3120.64,349.79,317.24,15.23,0000 0000 0000 0000 000000
2013-10-17 00:38:05,0.13,1.60,0.00,26.55,28.52,31.08,5.78,29.38,1007.99,2042.00,2872.38,2876.99,3120.27,349.70,317.14,15.24,0000 0000 0000 0000 000000
2013-10-17 00:39:05,0.16,1.60,0.00,26.52,28.52,31.06,5.85,29.38,1007.96,2042.00,2872.14,2876.72,3120.09,350.02,317.35,15.24,0000 0000 0000 0000 000000
2013-10-17 00:40:05,0.13,1.60,0.00,26.51,28.52,31.08,5.84,29.33,1008.00,2042.00,2871.95,2876.32,3119.98,350.48,318.22,15.25,0000 0000 0000 0000 000000
2013-10-17 00:41:05,0.14,1.60,0.00,26.49,28.52,31.09,5.76,29.42,1007.86,2042.00,2871.45,2876.11,3119.65,349.45,316.97,15.26,0000 0000 0000 0000 000000
2013-10-17 00:42:06,0.19,1.60,0.00,26.48,28.52,31.09,5.88,29.88,1007.85,2042.00,2871.16,2876.02,3119.26,350.18,317.45,15.26,0000 0000 0000 0000 000000
2013-10-17 00:43:06,0.13,1.61,0.00,26.50,28.52,31.08,5.98,29.71,1007.84,2042.00,2870.88,2875.81,3119.09,350.68,318.03,15.27,0000 0000 0000 0000 000000
2013-10-17 00:44:06,0.13,1.61,0.00,26.52,28.52,31.06,5.71,29.67,1007.83,2042.00,2870.39,2875.37,3118.97,349.33,317.06,15.27,0000 0000 0000 0000 000000
2013-10-17 00:45:06,0.22,1.61,0.00,26.56,28.52,31.05,5.81,29.42,1007.83,2042.01,2870.14,2875.15,3118.63,350.32,317.28,15.28,0000 0000 0000 0000 000000
2013-10-17 00:46:07,0.14,1.61,0.00,26.51,28.52,31.07,5.83,29.38,1007.66,2042.00,2870.03,2875.05,3118.25,349.90,317.19,15.29,0000 0000 0000 0000 000000
2013-10-17 00:47:07,0.09,1.61,0.00,26.46,28.52,31.06,5.90,29.63,1007.47,2042.01,2869.70,2875.00,3118.09,349.95,317.33,15.29,0000 0000 0000 0000 000000
2013-10-17 00:48:07,0.10,1.61,0.00,26.43,28.52,31.08,5.68,29.50,1007.37,2042.00,2869.26,2874.82,3118.02,349.22,317.45,15.30,0000 0000 0000 0000 000000
2013-10-17 00:49:08,0.11,1.61,0.00,26.43,28.52,31.08,5.84,29.33,1007.34,2042.00,2869.09,2874.42,3117.94,350.45,317.75,15.30,0000 0000 0000 0000 000000
2013-10-17 00:50:08,0.15,1.61,0.00,26.45,28.52,31.09,5.77,29.42,1007.34,2042.00,2868.97,2874.18,3117.54,349.61,316.96,15.31,0000 0000 0000 0000 000000
2013-10-17 00:51:08,0.13,1.61,0.00,26.48,28.52,31.11,5.85,29.33,1007.34,2042.00,2868.55,2874.07,3117.19,349.83,317.12,15.31,0000 0000 0000 0000 000000
2013-10-17 00:52:09,0.14,1.61,0.00,26.47,28.52,31.11,5.81,29.54,1007.33,2042.00,2868.20,2873.99,3117.07,349.59,316.92,15.32,0000 0000 0000 0000 000000
2013-10-17 00:53:09,0.09,1.61,0.00,26.40,28.52,31.11,5.88,29.46,1007.30,2042.00,2868.05,2873.78,3116.98,350.52,317.82,15.33,0000 0000 0000 0000 000000
2013-10-17 00:54:09,0.10,1.61,0.00,26.45,28.52,31.09,5.93,29.50,1007.26,2042.00,2867.73,2873.34,3116.60,350.56,317.70,15.33,0000 0000 0000 0000 000000
2013-10-17 00:55:09,0.23,1.61,0.00,26.54,28.52,31.08,5.91,29.46,1007.11,2042.00,2867.28,2873.12,3116.23,350.96,318.21,15.34,0000 0000 0000 0000 000000
2013-10-17 00:56:09,0.18,1.62,0.00,26.52,28.52,31.07,5.88,29.63,1006.90,2042.00,2867.10,2873.03,3116.08,350.29,317.08,15.34,0000 0000 0000 0000 000000
2013-10-17 00:57:10,0.06,1.62,0.00,26.48,28.52,31.07,5.88,29.67,1006.89,2042.00,2867.02,2873.00,3116.02,349.56,316.74,15.35,0000 0000 0000 0000 000000
2013-10-17 00:58:10,0.03,1.62,0.00,26.47,28.52,31.07,5.91,29.75,1006.92,2042.00,2866.75,2872.92,3115.93,349.57,316.99,15.36,0000 0000 0000 0000 000000
2013-10-17 00:59:10,0.08,1.62,0.00,26.45,28.52,31.08,5.84,29.42,1007.08,2042.00,2866.33,2872.56,3115.60,348.71,316.30,15.36,0000 0000 0000 0000 000000
2013-10-17 01:00:11,0.23,1.62,0.00,26.39,28.52,31.08,5.77,29.50,1007.10,2042.00,2866.12,2872.23,3115.25,350.29,317.56,15.37,0000 0000 0000 0000 000000
2013-10-17 01:01:11,0.16,1.62,0.00,26.46,28.52,31.06,5.83,29.54,1007.08,2042.01,2866.04,2872.08,3115.08,350.44,317.62,15.37,0000 0000 0000 0000 000000
2013-10-17 01:02:11,0.09,1.62,0.00,26.45,28.52,31.08,5.74,29.42,1007.16,2042.00,2865.70,2872.03,3115.03,350.26,317.49,15.38,0000 0000 0000 0000 000000
2013-10-17 01:03:11,0.07,1.62,0.00,26.43,28.52,31.10,5.88,29.33,1007.22,2042.00,2865.26,2871.92,3114.72,350.28,317.55,15.39,0000 0000 0000 0000 000000
2013-10-17 01:04:11,0.15,1.62,0.00,26.41,28.52,31.09,5.61,29.38,1007.13,2042.00,2865.08,2871.53,3114.31,348.77,316.18,15.39,0000 0000 0000 0000 000000
2013-10-17 01:05:12,0.18,1.62,0.00,26.42,28.52,31.09,5.83,29.46,1007.03,2042.00,2864.82,2871.22,3114.12,349.95,317.29,15.40,0000 0000 0000 0000 000000
2013-10-17 01:06:12,0.15,1.62,0.00,26.39,28.52,31.11,5.82,29.42,1006.88,2042.00,2864.33,2871.08,3114.04,351.44,318.12,15.40,0000 0000 0000 0000 000000
2013-10-17 01:07:12,0.13,1.62,0.00,26.39,28.52,31.12,5.85,29.46,1006.86,2042.00,2864.11,2870.99,3113.95,349.88,317.11,15.41,0000 0000 0000 0000 000000
2013-10-17 01:08:13,0.07,1.62,0.00,26.46,28.52,31.11,5.77,29.33,1006.85,2042.00,2864.04,2870.91,3113.52,350.46,317.58,15.41,0000 0000 0000 0000 000000
2013-10-17 01:09:13,0.10,1.63,0.00,26.49,28.52,31.09,5.78,29.38,1006.85,2042.00,2863.79,2870.58,3113.22,349.34,316.52,15.42,0000 0000 0000 0000 000000
2013-10-17 01:10:13,0.17,1.63,0.00,26.50,28.51,31.07,5.82,29.21,1006.85,2042.00,2863.32,2870.24,3113.08,350.04,317.14,15.43,0000 0000 0000 0000 000000
2013-10-17 01:11:13,0.16,1.63,0.00,26.49,28.51,31.09,5.81,29.38,1006.85,2042.01,2863.11,2870.09,3113.03,350.07,317.18,15.43,0000 0000 0000 0000 000000
2013-10-17 01:12:14,0.07,1.63,0.00,26.47,28.51,31.10,5.96,29.46,1006.85,2042.00,2862.95,2870.03,3112.90,350.67,317.74,15.44,0000 0000 0000 0000 000000
2013-10-17 01:13:14,0.07,1.63,0.00,26.45,28.50,31.10,5.62,29.46,1006.85,2042.00,2862.59,2869.99,3112.60,348.41,315.33,15.44,0000 0000 0000 0000 000000
2013-10-17 01:14:14,0.11,1.63,0.00,26.45,28.50,31.09,5.90,29.42,1006.85,2042.00,2862.23,2869.74,3112.26,350.57,317.84,15.45,0000 0000 0000 0000 000000
2013-10-17 01:15:14,0.17,1.63,0.00,26.46,28.50,31.08,5.77,29.29,1006.85,2042.00,2862.08,2869.30,3112.09,349.34,316.62,15.46,0000 0000 0000 0000 000000
2013-10-17 01:16:14,0.15,1.63,0.00,26.43,28.50,31.09,5.81,29.54,1006.85,2042.01,2861.92,2869.12,3112.03,349.66,316.87,15.46,0000 0000 0000 0000 000000
2013-10-17 01:17:15,0.09,1.63,0.00,26.44,28.50,31.07,5.78,29.33,1006.85,2042.00,2861.53,2869.03,3111.90,350.28,317.43,15.47,0000 0000 0000 0000 000000
2013-10-17 01:18:15,0.11,1.63,0.00,26.43,28.50,31.08,5.96,29.42,1006.86,2042.01,2861.20,2868.99,3111.48,350.52,317.65,15.47,0000 0000 0000 0000 000000
2013-10-17 01:19:15,0.13,1.63,0.00,26.44,28.50,31.08,5.87,29.46,1006.85,2042.00,2861.07,2868.71,3111.18,350.09,317.67,15.48,0000 0000 0000 0000 000000
2013-10-17 01:20:15,0.13,1.63,0.00,26.46,28.50,31.08,5.88,29.46,1006.86,2042.00,2860.82,2868.32,3111.06,348.83,316.31,15.48,0000 0000 0000 0000 000000
2013-10-17 01:21:15,0.16,1.63,0.00,26.50,28.50,31.08,5.81,29.46,1006.87,2042.00,2860.34,2868.12,3110.94,349.44,316.78,15.49,0000 0000 0000 0000 000000
2013-10-17 01:22:16,0.15,1.64,0.00,26.48,28.50,31.08,5.83,29.17,1006.86,2042.00,2860.12,2868.04,3110.63,349.75,316.90,15.50,0000 0000 0000 0000 000000
2013-10-17 01:23:16,0.10,1.64,0.00,26.41,28.50,31.06,5.88,29.42,1006.86,2042.00,2859.99,2868.00,3110.27,350.37,317.56,15.50,0000 0000 0000 0000 000000
2013-10-17 01:24:17,0.09,1.64,0.00,26.44,28.50,31.09,5.86,29.33,1006.86,2042.00,2859.61,2867.78,3110.09,349.69,317.32,15.51,0000 0000 0000 0000 000000
2013-10-17 01:25:17,0.14,1.64,0.00,26.37,28.50,31.08,5.80,29.25,1006.85,2042.00,2859.24,2867.36,3110.02,349.64,316.76,15.51,0000 0000 0000 0000 000000
2013-10-17 01:26:17,0.18,1.64,0.00,26.36,28.50,31.09,5.77,29.50,1006.86,2042.00,2859.08,2867.15,3109.91,349.94,317.55,15.52,0000 0000 0000 0000 000000
2013-10-17 01:27:18,0.10,1.64,0.00,26.43,28.50,31.07,5.94,29.42,1006.86,2042.00,2859.00,2867.05,3109.55,350.79,317.90,15.53,0000 0000 0000 0000 000000
2013-10-17 01:28:18,0.09,1.64,0.00,26.52,28.50,31.07,5.97,29.42,1006.88,2042.00,2858.72,2867.01,3109.22,350.17,317.25,15.53,0000 0000 0000 0000 000000
2013-10-17 01:29:18,0.10,1.64,0.00,26.51,28.50,31.08,5.73,29.42,1006.88,2042.00,2858.29,2866.91,3109.08,349.96,317.33,15.54,0000 0000 0000 0000 000000
2013-10-17 01:30:18,0.13,1.64,0.00,26.46,28.50,31.07,5.79,29.25,1006.88,2042.01,2858.10,2866.56,3109.01,349.72,316.90,15.54,0000 0000 0000 0000 000000
2013-10-17 01:31:19,0.12,1.64,0.00,26.43,28.50,31.07,5.80,29.29,1006.87,2042.00,2858.00,2866.22,3108.94,350.29,317.44,15.55,0000 0000 0000 0000 000000
2013-10-17 01:32:19,0.12,1.64,0.00,26.42,28.50,31.08,5.83,29.46,1006.86,2042.00,2857.61,2866.08,3108.60,350.17,317.76,15.55,0000 0000 0000 0000 000000
2013-10-17 01:33:19,0.13,1.64,0.00,26.39,28.50,31.07,5.71,29.50,1006.86,2042.00,2857.25,2866.03,3108.27,350.16,317.38,15.56,0000 0000 0000 0000 000000
2013-10-17 01:34:19,0.12,1.64,0.00,26.34,28.50,31.08,5.77,29.50,1006.85,2042.00,2857.09,2866.00,3108.10,349.68,316.98,15.57,0000 0000 0000 0000 000000
2013-10-17 01:35:20,0.06,1.64,0.00,26.31,28.50,31.08,5.92,29.54,1006.85,2042.00,2857.01,2865.78,3108.03,350.18,317.47,15.57,0000 0000 0000 0000 000000
2013-10-17 01:36:20,0.09,1.64,0.00,26.28,28.50,31.09,5.95,29.54,1006.85,2042.00,2856.61,2865.37,3107.86,348.94,316.38,15.58,0000 0000 0000 0000 000000
2013-10-17 01:37:20,0.19,1.65,0.00,26.33,28.50,31.09,5.89,29.50,1006.85,2042.00,2856.22,2865.14,3107.41,349.74,317.05,15.58,0000 0000 0000 0000 000000
2013-10-17 01:38:21,0.18,1.65,0.00,26.43,28.50,31.06,5.76,29.38,1006.85,2042.00,2856.08,2865.04,3107.15,349.61,317.23,15.59,0000 0000 0000 0000 000000
2013-10-17 01:39:21,0.08,1.65,0.00,26.46,28.50,31.06,5.66,29.42,1006.85,2042.00,2855.90,2864.99,3107.05,348.40,315.90,15.60,0000 0000 0000 0000 000000
2013-10-17 01:40:21,0.06,1.65,0.00,26.42,28.50,31.07,5.76,29.50,1006.85,2042.00,2855.46,2864.86,3107.02,349.89,317.34,15.60,0000 0000 0000 0000 000000
2013-10-17 01:41:21,0.12,1.65,0.00,26.40,28.50,31.07,5.73,29.50,1006.85,2042.00,2855.17,2864.47,3106.90,350.11,317.32,15.61,0000 0000 0000 0000 000000
2013-10-17 01:42:22,0.16,1.65,0.00,26.40,28.50,31.08,5.99,29.88,1006.85,2042.00,2855.04,2864.21,3106.47,351.01,317.87,15.61,0000 0000 0000 0000 000000
2013-10-17 01:43:22,0.15,1.65,0.00,26.41,28.50,31.07,5.84,29.71,1006.82,2042.00,2854.81,2864.07,3106.17,350.44,317.01,15.62,0000 0000 0000 0000 000000
2013-10-17 01:44:22,0.12,1.65,0.00,26.40,28.50,31.07,5.73,29.71,1006.73,2042.00,2854.36,2864.00,3106.05,349.24,316.48,15.63,0000 0000 0000 0000 000000
2013-10-17 01:45:23,0.09,1.65,0.00,26.42,28.50,31.06,5.79,29.54,1006.52,2042.01,2854.13,2863.90,3105.97,350.89,317.90,15.63,0000 0000 0000 0000 000000
2013-10-17 01:46:23,0.09,1.65,0.00,26.43,28.50,31.06,5.87,29.42,1006.40,2042.00,2854.02,2863.56,3105.72,349.06,316.19,15.64,0000 0000 0000 0000 000000
2013-10-17 01:47:23,0.14,1.65,0.00,26.43,28.50,31.06,5.83,29.29,1006.37,2042.00,2853.78,2863.22,3105.33,350.01,317.04,15.64,0000 0000 0000 0000 000000
2013-10-17 01:48:24,0.18,1.66,0.00,26.39,28.49,31.05,5.87,29.50,1006.36,2042.00,2853.34,2863.08,3105.13,350.48,317.50,15.65,0000 0000 0000 0000 000000
2013-10-17 01:49:24,0.12,1.66,0.00,26.40,28.49,31.05,5.56,29.38,1006.36,2042.00,2853.12,2863.03,3105.05,348.45,315.66,15.65,0000 0000 0000 0000 000000
2013-10-17 01:50:24,0.06,1.66,0.00,26.39,28.49,31.05,5.68,29.38,1006.36,2042.00,2853.03,2862.97,3104.98,349.67,317.06,15.66,0000 0000 0000 0000 000000
2013-10-17 01:51:24,0.08,1.66,0.00,26.39,28.49,31.04,5.77,29.71,1006.35,2042.01,2852.69,2862.61,3104.63,349.85,317.12,15.67,0000 0000 0000 0000 000000
2013-10-17 01:52:25,0.19,1.66,0.00,26.40,28.49,31.05,5.71,29.54,1006.31,2042.00,2852.26,2862.27,3104.28,349.55,316.63,15.67,0000 0000 0000 0000 000000
2013-10-17 01:53:25,0.19,1.66,0.00,26.42,28.48,31.05,5.74,29.54,1006.17,2042.00,2852.11,2862.10,3104.10,349.62,316.63,15.68,0000 0000 0000 0000 000000
2013-10-17 01:54:25,0.10,1.66,0.00,26.39,28.48,31.05,5.97,29.67,1006.09,2042.02,2851.99,2862.03,3104.03,350.47,317.41,15.68,0000 0000 0000 0000 000000
2013-10-17 01:55:25,0.06,1.66,0.00,26.37,28.48,31.03,5.69,29.54,1005.92,2042.01,2851.59,2862.00,3103.87,349.30,316.44,15.69,0000 0000 0000 0000 000000
2013-10-17 01:56:26,0.11,1.66,0.00,26.39,28.47,31.04,5.71,29.46,1005.89,2042.00,2851.25,2861.76,3103.43,349.72,316.71,15.70,0000 0000 0000 0000 000000
2013-10-17 01:57:26,0.17,1.66,0.00,26.43,28.47,31.04,5.85,29.50,1005.90,2042.00,2851.09,2861.41,3103.16,350.02,317.27,15.70,0000 0000 0000 0000 000000
2013-10-17 01:58:26,0.15,1.66,0.00,26.43,28.47,31.05,5.86,29.67,1005.88,2042.00,2850.96,2861.15,3103.05,349.82,316.71,15.71,0000 0000 0000 0000 000000
2013-10-17 01:59:27,0.11,1.66,0.00,26.41,28.47,31.05,5.86,29.50,1005.87,2042.01,2850.53,2861.05,3102.99,350.36,317.36,15.71,0000 0000 0000 0000 000000
2013-10-17 02:00:27,0.09,1.66,0.00,26.40,28.47,31.04,5.73,29.46,1005.87,2042.00,2850.19,2861.02,3102.73,349.87,316.79,15.72,0000 0000 0000 0000 000000
2013-10-17 02:01:27,0.10,1.66,0.00,26.36,28.47,31.03,5.70,29.38,1005.86,2042.00,2850.04,2860.83,3102.30,349.41,316.41,15.72,0000 0000 0000 0000 000000
2013-10-17 02:02:28,0.15,1.67,0.00,26.39,28.47,31.05,5.78,29.58,1005.80,2042.00,2849.79,2860.41,3102.11,349.83,316.75,15.73,0000 0000 0000 0000 000000
2013-10-17 02:03:28,0.18,1.67,0.00,26.42,28.47,31.04,6.01,29.58,1005.60,2042.00,2849.33,2860.17,3102.04,349.96,316.82,15.74,0000 0000 0000 0000 000000
2013-10-17 02:04:28,0.12,1.67,0.00,26.45,28.47,31.03,5.84,29.71,1005.42,2042.01,2849.12,2860.06,3102.00,350.34,317.03,15.74,0000 0000 0000 0000 000000
2013-10-17 02:05:29,0.07,1.67,0.00,26.44,28.47,31.04,5.86,29.71,1005.39,2042.00,2849.04,2860.02,3101.76,350.46,317.13,15.75,0000 0000 0000 0000 000000
2013-10-17 02:06:29,0.07,1.67,0.00,26.41,28.47,31.04,5.65,29.71,1005.39,2042.00,2848.74,2859.96,3101.34,349.06,316.05,15.75,0000 0000 0000 0000 000000
2013-10-17 02:07:29,0.14,1.67,0.00,26.36,28.47,31.03,5.83,29.71,1005.39,2042.01,2848.29,2859.61,3101.12,350.11,316.91,15.76,0000 0000 0000 0000 000000
2013-10-17 02:08:29,0.18,1.67,0.00,26.36,28.47,31.02,5.77,29.63,1005.37,2042.00,2848.11,2859.26,3101.04,349.99,316.66,15.77,0000 0000 0000 0000 000000
2013-10-17 02:09:30,0.13,1.67,0.00,26.41,28.47,31.01,5.79,29.71,1005.38,2042.00,2848.00,2859.09,3100.97,350.48,317.18,15.77,0000 0000 0000 0000 000000
2013-10-17 02:10:30,0.10,1.67,0.00,26.46,28.47,31.02,5.90,29.83,1005.37,2042.01,2847.51,2859.03,3100.54,350.32,316.98,15.78,0000 0000 0000 0000 000000
2013-10-17 02:11:30,0.14,1.67,0.00,26.44,28.47,31.02,5.80,29.83,1005.33,2042.01,2847.19,2858.98,3100.20,349.57,315.92,15.78,0000 0000 0000 0000 000000
2013-10-17 02:12:30,0.12,1.67,0.00,26.49,28.47,31.01,5.89,29.67,1005.25,2042.02,2847.07,2858.73,3100.08,349.75,316.39,15.79,0000 0000 0000 0000 000000
2013-10-17 02:13:31,0.12,1.67,0.00,26.46,28.47,31.01,5.82,29.54,1005.16,2042.06,2846.86,2858.32,3100.00,350.60,317.16,15.80,0000 0000 0000 0000 000000
2013-10-17 02:14:31,0.18,1.67,0.00,26.35,28.47,31.02,5.63,29.67,1004.99,2042.05,2846.36,2858.12,3099.85,349.74,316.44,15.80,0000 0000 0000 0000 000000
2013-10-17 02:15:31,0.16,1.67,0.00,26.28,28.47,31.02,5.92,29.83,1004.94,2042.04,2846.14,2858.03,3099.44,350.51,317.11,15.81,0000 0000 0000 0000 000000
2013-10-17 02:16:31,0.10,1.68,0.00,26.33,28.47,31.02,5.77,29.88,1004.91,2042.04,2845.94,2857.96,3099.16,349.95,316.63,15.81,0000 0000 0000 0000 000000
2013-10-17 02:17:32,0.10,1.68,0.00,26.40,28.47,31.03,5.83,30.00,1004.90,2042.02,2845.52,2857.67,3099.05,350.52,316.91,15.82,0000 0000 0000 0000 000000
2013-10-17 02:18:32,0.14,1.68,0.00,26.40,28.47,31.04,5.63,29.75,1004.90,2042.03,2845.21,2857.30,3099.00,349.23,315.77,15.82,0000 0000 0000 0000 000000
2013-10-17 02:19:32,0.16,1.68,0.00,26.39,28.46,31.03,5.73,29.83,1004.90,2042.08,2845.06,2857.11,3098.75,349.25,316.05,15.83,0000 0000 0000 0000 000000
2013-10-17 02:20:33,0.13,1.68,0.00,26.34,28.46,31.02,5.82,29.71,1004.90,2042.05,2844.85,2857.04,3098.30,349.92,316.59,15.84,0000 0000 0000 0000 000000
2013-10-17 02:21:33,0.14,1.68,0.00,26.31,28.45,31.03,6.02,29.92,1004.90,2042.12,2844.36,2856.99,3098.11,350.51,317.15,15.84,0000 0000 0000 0000 000000
2013-10-17 02:22:33,0.16,1.68,0.00,26.36,28.45,31.03,5.86,29.96,1004.90,2042.12,2844.13,2856.68,3098.04,349.93,316.58,15.85,0000 0000 0000 0000 000000
2013-10-17 02:23:34,0.11,1.68,0.00,26.39,28.45,31.02,5.77,29.71,1004.90,2042.05,2844.02,2856.28,3097.85,349.75,316.39,15.85,0000 0000 0000 0000 000000
2013-10-17 02:24:34,0.11,1.68,0.00,26.44,28.45,31.00,5.85,29.92,1004.90,2042.03,2843.66,2856.10,3097.34,349.99,316.56,15.86,0000 0000 0000 0000 000000
2013-10-17 02:25:34,0.16,1.68,0.00,26.45,28.45,31.00,5.77,29.79,1004.90,2042.10,2843.25,2856.04,3097.12,350.22,316.74,15.87,0000 0000 0000 0000 000000
2013-10-17 02:26:34,0.17,1.68,0.00,26.49,28.45,30.99,5.76,29.75,1004.93,2042.15,2843.08,2856.00,3097.04,350.05,316.83,15.87,0000 0000 0000 0000 000000
2013-10-17 02:27:34,0.05,1.68,0.00,26.48,28.45,31.00,5.90,29.92,1004.92,2042.14,2842.98,2855.80,3096.98,349.37,315.99,15.88,0000 0000 0000 0000 000000
2013-10-17 02:28:34,0.12,1.69,0.00,26.50,28.45,30.98,6.02,30.00,1004.93,2042.14,2842.67,2855.40,3096.68,350.83,316.89,15.88,0000 0000 0000 0000 000000
2013-10-17 02:29:35,0.21,1.69,0.00,26.51,28.45,30.97,5.73,30.04,1004.95,2042.12,2842.30,2855.15,3096.30,349.57,316.11,15.89,0000 0000 0000 0000 000000
2013-10-17 02:30:35,0.14,1.69,0.00,26.48,28.45,30.98,5.83,29.88,1005.03,2042.09,2842.11,2855.05,3096.11,350.01,316.56,15.89,0000 0000 0000 0000 000000
2013-10-17 02:31:35,0.07,1.69,0.00,26.43,28.45,30.98,5.76,29.92,1005.09,2042.14,2841.98,2855.01,3096.04,349.33,316.02,15.90,0000 0000 0000 0000 000000
2013-10-17 02:32:35,0.06,1.69,0.00,26.47,28.45,30.99,5.83,29.79,1005.26,2042.10,2841.63,2854.90,3095.95,350.30,317.03,15.91,0000 0000 0000 0000 000000
2013-10-17 02:33:36,0.12,1.69,0.00,26.43,28.45,30.98,5.60,29.79,1005.34,2042.06,2841.24,2854.42,3095.47,349.18,316.27,15.91,0000 0000 0000 0000 000000
2013-10-17 02:34:36,0.20,1.69,0.00,26.43,28.45,30.98,5.83,30.08,1005.36,2042.05,2841.08,2854.15,3095.17,349.35,316.13,15.92,0000 0000 0000 0000 000000
2013-10-17 02:35:37,0.13,1.69,0.00,26.46,28.45,31.00,5.83,30.04,1005.36,2042.06,2840.92,2854.05,3095.06,351.11,317.69,15.92,0000 0000 0000 0000 000000
2013-10-17 02:36:37,0.11,1.69,0.00,26.44,28.45,31.00,5.74,29.75,1005.29,2042.11,2840.56,2854.00,3095.01,349.91,316.28,15.93,0000 0000 0000 0000 000000